TIROS 6 DEB, 29006

Orbit data source: Space-Track

TIROS 6 DEB, 29006 is space debris in LEO originally from a launch on Tue, 18 Sep 1962 UTC launched from the Air Force Eastern Test Range (AFETR). Debris objects in space refer to the collection of defunct objects orbiting the Earth. Examples of debris include non-operational satellites, rocket bodies, and fragments generated from explosions, collisions, or faulty payload assembly.

Loading next visibility...
Identifier
29006, 1962-047F
Orbit
LEO
Country
Flag of USUS
Related business
Manufacturer
Unknown
Mission
Spacecraft
Bus & Motor
Unknown
Mass
Unknown
Launch date (UTC)
1962-09-18 (63 years ago)
Launch vehicle
Unknown
Launch site
Air Force Eastern Test Range (AFETR)
Object type
Payload
Rocket body
Debris
Shape & HBR
Unknown shape, 0.1 m
Radar Cross Section
Small (<0.1 m²)

Expand to show TLE details & history
Last TLE update: 2 days ago

TLE from 2 days ago
0 TIROS 6 DEB
1 29006U 62047F   25306.10127085  .00000908  00000-0  12886-3 0  9991
2 29006  58.3078 162.8923 0014416  62.7244 297.5266 14.85422532667880
Epoch: 2025-11-02T02:25Z
TLE epoch observation values (Epoch: 2025-11-02T02:25:49.801Z)
Latitude
0.00001°
Longitude
84.81297°
Altitude
609.022 km
Speed
7.558 km/s
True Right ascension
10h 51m 34s
True Declination
0° 00' 00"
Sunlit
Object was in daylight at epoch
Visualization orbit readout
Latitude
Unknown
Longitude
Unknown
Altitude
Unknown
Speed
Unknown
Apparent Right ascension
Unknown
Apparent Declination
Unknown
Sunlit
N/A
Visualization observer readout
Local Sidereal Time
14:37:01
Azimuth
Unknown
Elevation
Unknown
Doppler factor
Unknown
Orbital elements
Apogee altitude
621.799 km
Perigee altitude
601.646 km
Semi-major axis
6,989.859 km
Eccentricity
0.00144
Inclination
58.3078°
RAAN
162.8923°
Arg. of periapsis
62.7244°
True anomaly
297.37998°
Mean anomaly
297.5266°
Eccentric anomaly
297.4533°
Mean motion
3.71399 °/min
Orbital period
96.93 mins
BSTAR
0.00012886
Loading maneuver chart data...
Computing Atmospheric mass density...
Loading historical data...
Loading historical data...
Loading historical data...
Loading historical data...
Loading historical data...
Loading historical data...
Loading historical data...

Documentation

Showing up to 5 results
|